Location: Aulnoy
(48.8410°N, 3.0967°E)
Time: 18:11:14
(UTC+00:00)

Cosmos 1606 - Visible Passes

Search period start: 26 May 2024 00:00
Search period end: 05 June 2024 00:00
Orbit: 458 x 477 km, 82.5° (Epoch: 25 May)

Date Brightness Start Highest point End Pass type
(mag) Time Alt. Az. Time Alt. Az. Time Alt. Az.
26 May 5.1 03:11:26 10° NNE 03:14:23 24° ENE 03:17:19 10° SE visible
27 May 5.6 02:42:07 10° NNE 02:44:10 15° ENE 02:46:13 10° ESE visible
30 May 4.7 02:45:41 10° NNE 02:48:47 28° ENE 02:51:54 10° SE visible
31 May 5.4 02:16:05 10° NNE 02:18:28 17° ENE 02:20:51 10° ESE visible
01 Jun 6.0 01:47:48 10° ENE 01:48:02 10° ENE 01:48:15 10° ENE visible
02 Jun 3.1 02:49:29 10° N 02:53:00 60° ENE 02:56:31 10° SSE visible
03 Jun 4.3 02:19:27 10° N 02:22:41 32° ENE 02:25:55 10° SE visible
04 Jun 5.2 01:49:37 10° NNE 01:52:15 19° ENE 01:54:52 10° ESE visible
